Location: Newark
(25.6108°S, 54.5803°W)
Time: 23:15:48
(UTC+00:00)

Tiros 1 - Pass Details

Date: 29 October 2020
Orbit: 630 x 664 km, 48.4° (Epoch: 29 November)

Event Time Altitude Azimuth Distance (km) Brightness Sun altitude
Rises 23:26:38 0° 206° (SSW) 3,018 11.5 -20.5°
Reaches altitude 10° 23:30:45 10° 173° (S) 2,097 10.0 -21.3°
Maximum altitude 23:32:22 12° 153° (SSE) 1,992 9.7 -21.6°
Enters shadow 23:33:41 11° 137° (SE) 2,055 9.6 -21.9°
Drops below altitude 10° 23:33:59 10° 133° (SE) 2,089 - -21.9°
Sets 23:38:03 0° 100° (E) 2,988 - -22.7°
